FREGAT R/B

Last updated on June 15, 2020, 12:02 a.m. UTC

1 45609U 20031B   20166.20590804 -.00000445  00000-0  00000+0 0  9996
2 45609  63.8685 300.4523 6953651 269.9604  17.3734  2.01380407   459
UTC
Height (km)
Latitude
Longitude
Inclination
Orbital Period
UTC large
Height (km)
Speed (km/s)
/
Latitude / Longitude
Inclination (degrees)
Orbital Period (minutes)
Azimuth
Elevation
Range (km)
Doppler Factor
iOS Compass Heading
iOS Angle

Next 30 passes for location: Hong Kong

Rise time Rise Azimuth (degrees) Set time Set Azimuth (degrees) Duration Max altitude (degrees)

No matching passes for this satellites